Location: Gerlach
(40.6516°N, 119.3568°W)
Time: 11:38:41
(UTC-07:00)

Vanguard 2 Rocket - Pass Details

Date: 25 February 2024
Orbit: 555 x 3307 km, 32.9° (Epoch: 11 April)

Event Time Altitude Azimuth Distance (km) Brightness Sun altitude
Rises 20:41:23 0° 278° (W) 6,342 12.2 -34.0°
Reaches altitude 10° 20:46:03 10° 268° (W) 5,651 11.6 -34.9°
Maximum altitude 21:00:16 29° 217° (SW) 4,755 10.5 -37.4°
Enters shadow 21:11:55 17° 175° (S) 5,589 10.6 -39.4°
